Location: El Centro
(32.7920°N, 115.5620°W)
Time: 00:46:26
(UTC-07:00)

Amateur Radio Satellites - All Passes

Search period start: 24 October 2014 00:16
Search period end: 25 October 2014 00:16
Location: El Centro, 32.7920°N, 115.5620°W

Satellite Date Start Highest point End Downlink Frequencies (MHz)
Time Altitude Azimuth
Oscar 16 24 Oct 01:17:22 01:21:08 20° 95° (E) 01:24:52 437.025 USB, Beacon 2401.1428
AO-Echo 24 Oct 01:22:31 01:23:43 11° 91° (E) 01:24:55 ?
Uribyol 2 24 Oct 01:36:59 01:38:50 12° 92° (E) 01:40:41 436.500 FM
ITAMSAT 1 24 Oct 01:42:22 01:44:40 13° 93° (E) 01:46:57 435.822 SSB
UOSAT-12 24 Oct 01:44:58 01:45:29 10° 254° (WSW) 01:45:59 437.025 FM, 437.400 FM
RS-15 24 Oct 01:53:07 01:57:24 13° 336° (NNW) 02:01:43 29.354 - 29.394 USB, Beacon 29.352 USB
Oscar 19 24 Oct 02:09:52 02:14:59 74° 102° (ESE) 02:20:05 437.125 CW, 437.150 USB
JAS-1B 24 Oct 02:18:54 02:25:47 73° 103° (ESE) 02:34:04 435.800 - 435.900 CW/SSB
AO-27 24 Oct 02:25:32 02:30:25 39° 99° (E) 02:35:16 436.795 MHz FM
Sapphire 24 Oct 02:51:36 02:55:42 22° 106° (ESE) 02:59:48 437.095 MHz 1200 baud AX-25 AFSK
Oscar 16 24 Oct 02:55:51 03:00:31 37° 289° (WNW) 03:05:10 437.025 USB, Beacon 2401.1428
AO-Echo 24 Oct 02:57:34 03:02:52 72° 285° (WNW) 03:08:08 ?
PCSat 24 Oct 03:13:10 03:18:10 40° 109° (ESE) 03:23:12 145.825 MHz
Uribyol 2 24 Oct 03:13:30 03:18:39 63° 286° (WNW) 03:23:45 436.500 FM
ITAMSAT 1 24 Oct 03:19:19 03:24:27 59° 286° (WNW) 03:29:33 435.822 SSB
AO-7 24 Oct 03:26:43 03:31:06 15° 93° (E) 03:35:28 29.400 - 29.500 MHz
Gurwin Techsat 1B 24 Oct 03:33:59 03:39:19 84° 284° (WNW) 03:44:37 435.225 FM
TMSAT-1 24 Oct 03:45:47 03:51:06 88° 284° (WNW) 03:56:24 436.925 FM
OPAL 24 Oct 03:46:11 03:48:15 12° 62° (ENE) 03:50:19 ?
Oscar 19 24 Oct 03:52:26 03:53:38 11° 296° (WNW) 03:54:51 437.125 CW, 437.150 USB
AO-27 24 Oct 04:05:49 04:09:36 21° 293° (WNW) 04:13:23 436.795 MHz FM
JAS-1B 24 Oct 04:11:37 04:15:58 18° 294° (WNW) 04:20:45 435.800 - 435.900 CW/SSB
RS-15 24 Oct 04:15:42 04:17:33 10° 17° (NNE) 04:19:25 29.354 - 29.394 USB, Beacon 29.352 USB
Sapphire 24 Oct 04:33:47 04:38:48 39° 300° (WNW) 04:43:52 437.095 MHz 1200 baud AX-25 AFSK
Uosat F 24 Oct 04:41:57 04:46:45 42° 100° (E) 04:51:30 435.120 FM
JAS-2 24 Oct 04:56:09 05:01:53 22° 92° (E) 05:07:32 435.800 - 435.900 CW/SSB, 435.910 FM
PCSat 24 Oct 04:57:26 05:01:40 23° 305° (NW) 05:05:57 145.825 MHz
AO-7 24 Oct 05:16:15 05:24:37 87° 288° (WNW) 05:32:58 29.400 - 29.500 MHz
OPAL 24 Oct 05:21:23 05:26:31 68° 256° (WSW) 05:31:38 ?
STRAND 1 24 Oct 05:29:19 05:31:18 12° 64° (ENE) 05:33:16 ?
Uosat F 24 Oct 06:21:47 06:25:09 18° 293° (WNW) 06:28:30 435.120 FM
Hamsat 24 Oct 06:23:22 06:27:34 73° 101° (E) 06:31:47 145.90 MHz
RS-15 24 Oct 06:24:47 06:34:48 36° 49° (NE) 06:45:08 29.354 - 29.394 USB, Beacon 29.352 USB
JAS-2 24 Oct 06:39:30 06:47:14 67° 287° (WNW) 06:54:53 435.800 - 435.900 CW/SSB, 435.910 FM
PANSAT 24 Oct 06:42:34 06:45:17 18° 161° (SSE) 06:47:59 not established
STRAND 1 24 Oct 07:04:46 07:09:51 66° 258° (WSW) 07:14:58 ?
AO-7 24 Oct 07:11:36 07:16:12 16° 305° (NW) 07:20:49 29.400 - 29.500 MHz
Saudisat 1A 24 Oct 07:12:58 07:17:16 61° 116° (ESE) 07:21:36 436.775 MHz
SO-67 24 Oct 08:05:57 08:09:13 41° 284° (WNW) 08:12:28 435.3500 MHz FM
PANSAT 24 Oct 08:21:27 08:25:01 38° 172° (S) 08:28:35 not established
JAS-2 24 Oct 08:28:50 08:30:50 11° 302° (WNW) 08:32:50 435.800 - 435.900 CW/SSB, 435.910 FM
RS-15 24 Oct 08:36:40 08:47:41 62° 248° (WSW) 08:59:12 29.354 - 29.394 USB, Beacon 29.352 USB
HO-68 24 Oct 08:39:32 08:45:14 25° 96° (E) 08:50:52 435.675 MHz FM
Saudisat 1A 24 Oct 08:55:19 08:57:12 13° 312° (NW) 08:59:06 436.775 MHz
UKube-1 24 Oct 09:30:57 09:34:07 19° 96° (E) 09:37:15 145.840 MHz, 145.915 MHz
MaSat-1 24 Oct 09:50:30 09:52:59 72° 249° (WSW) 09:55:20 437.345 MHz
Oscar 10/S400 24 Oct 09:53:36 00:58:15 38° 233° (SW) 10:42:47 145.825 - 145.975 CW/USB, Beacon 145.810 USB
PANSAT 24 Oct 10:01:17 10:04:54 41° 185° (S) 10:08:31 not established
FUNcube-1 24 Oct 10:09:31 10:12:33 19° 95° (E) 10:15:32 145.950 - 145.970 MHz USB
Oscar 11 24 Oct 10:12:03 10:16:18 58° 100° (E) 10:20:31 145.825 FM, Beacon 2401.500 USB
HO-68 24 Oct 10:26:12 10:33:06 51° 290° (WNW) 10:39:58 435.675 MHz FM
ZACube-1 24 Oct 10:59:53 11:04:08 87° 102° (ESE) 11:08:17 437.345 MHz
UKube-1 24 Oct 11:06:30 11:10:15 28° 289° (WNW) 11:13:59 145.840 MHz, 145.915 MHz
KITSAT 1 24 Oct 11:28:54 11:36:33 49° 110° (ESE) 11:44:13 435.175 FM
ISS 24 Oct 11:40:09 11:43:06 30° 130° (SE) 11:46:04 145.800 FM
PANSAT 24 Oct 11:41:41 11:44:41 22° 197° (SSW) 11:47:42 not established
FUNcube-1 24 Oct 11:45:22 11:48:53 26° 289° (WNW) 11:52:20 145.950 - 145.970 MHz USB
PCSat 24 Oct 12:06:56 12:09:48 14° 51° (NE) 12:12:40 145.825 MHz
Oscar 16 24 Oct 12:30:24 12:34:06 20° 67° (ENE) 12:37:47 437.025 USB, Beacon 2401.1428
SO-50 24 Oct 12:42:21 12:46:48 85° 117° (ESE) 12:51:23 436.795 FM
Uribyol 2 24 Oct 12:50:55 12:53:08 13° 64° (ENE) 12:55:20 436.500 FM
ITAMSAT 1 24 Oct 12:56:31 12:59:01 14° 64° (ENE) 13:01:32 435.822 SSB
JAS-1B 24 Oct 13:01:43 13:07:12 36° 71° (ENE) 13:12:19 435.800 - 435.900 CW/SSB
Gurwin Techsat 1B 24 Oct 13:16:34 13:16:41 10° 63° (ENE) 13:16:48 435.225 FM
ISS 24 Oct 13:17:13 13:19:49 21° 325° (NW) 13:22:24 145.800 FM
Oscar 19 24 Oct 13:22:14 13:27:21 67° 75° (ENE) 13:32:28 437.125 CW, 437.150 USB
KITSAT 1 24 Oct 13:24:58 13:32:05 33° 307° (NW) 13:39:14 435.175 FM
Sapphire 24 Oct 13:25:44 13:31:08 65° 63° (ENE) 13:36:30 437.095 MHz 1200 baud AX-25 AFSK
AO-27 24 Oct 13:39:23 13:44:10 38° 71° (ENE) 13:48:58 436.795 MHz FM
PCSat 24 Oct 13:48:20 13:53:44 72° 247° (WSW) 13:59:06 145.825 MHz
AO-Echo 24 Oct 14:06:01 14:10:51 88° 257° (WSW) 14:15:52 ?
UOSAT-12 24 Oct 14:08:01 14:12:30 55° 115° (ESE) 14:17:04 437.025 FM, 437.400 FM
Oscar 16 24 Oct 14:08:18 14:13:07 39° 261° (W) 14:17:57 437.025 USB, Beacon 2401.1428
AO-7 24 Oct 14:22:07 14:26:38 16° 55° (NE) 14:31:09 29.400 - 29.500 MHz
Uribyol 2 24 Oct 14:26:48 14:31:58 66° 258° (WSW) 14:37:11 436.500 FM
ITAMSAT 1 24 Oct 14:32:48 14:37:55 61° 259° (WSW) 14:43:06 435.822 SSB
Gurwin Techsat 1B 24 Oct 14:50:34 14:55:52 83° 257° (WSW) 15:01:12 435.225 FM
JAS-1B 24 Oct 14:53:05 14:57:54 24° 263° (W) 15:02:26 435.800 - 435.900 CW/SSB
TMSAT-1 24 Oct 15:02:00 15:07:18 88° 257° (WSW) 15:12:38 436.925 FM
Oscar 19 24 Oct 15:05:54 15:07:03 11° 268° (W) 15:08:13 437.125 CW, 437.150 USB
Sapphire 24 Oct 15:11:36 15:13:55 13° 257° (WSW) 15:16:14 437.095 MHz 1200 baud AX-25 AFSK
AO-27 24 Oct 15:19:57 15:23:44 20° 265° (W) 15:27:32 436.795 MHz FM
Saudisat 1A 24 Oct 15:44:59 15:47:38 15° 50° (NE) 15:50:15 436.775 MHz
UOSAT-12 24 Oct 15:50:16 15:52:58 15° 311° (NW) 15:55:43 437.025 FM, 437.400 FM
Uosat F 24 Oct 15:50:59 15:55:33 37° 71° (ENE) 16:00:09 435.120 FM
AO-7 24 Oct 16:09:56 16:18:13 86° 72° (ENE) 16:26:32 29.400 - 29.500 MHz
JAS-2 24 Oct 16:47:30 16:52:38 34° 67° (ENE) 16:58:22 435.800 - 435.900 CW/SSB, 435.910 FM
Hamsat 24 Oct 17:12:39 17:16:16 28° 72° (ENE) 17:19:53 145.90 MHz
Saudisat 1A 24 Oct 17:23:10 17:27:25 47° 246° (WSW) 17:31:39 436.775 MHz
Uosat F 24 Oct 17:30:47 17:34:23 20° 265° (W) 17:38:01 435.120 FM
OPAL 24 Oct 17:35:56 17:40:41 46° 102° (ESE) 17:45:25 ?
AO-7 24 Oct 18:07:26 18:11:44 15° 267° (W) 18:16:04 29.400 - 29.500 MHz
JAS-2 24 Oct 18:32:45 18:37:40 29° 266° (W) 18:43:09 435.800 - 435.900 CW/SSB, 435.910 FM
SO-67 24 Oct 18:34:21 18:37:15 26° 74° (ENE) 18:40:09 435.3500 MHz FM
Hamsat 24 Oct 18:49:21 18:52:11 18° 265° (W) 18:55:02 145.90 MHz
HO-68 24 Oct 19:07:20 19:09:38 12° 57° (ENE) 19:11:56 435.675 MHz FM
OPAL 24 Oct 19:16:07 19:19:10 17° 296° (WNW) 19:22:12 ?
STRAND 1 24 Oct 19:19:55 19:25:01 61° 101° (ESE) 19:30:04 ?
KITSAT 1 24 Oct 19:29:43 19:32:33 12° 38° (NE) 19:35:23 435.175 FM
ISS 24 Oct 19:48:27 19:51:44 56° 42° (NE) 19:55:00 145.800 FM
SO-67 24 Oct 20:08:52 20:10:13 12° 266° (W) 20:11:34 435.3500 MHz FM
UKube-1 24 Oct 20:25:05 20:25:28 10° 65° (ENE) 20:25:52 145.840 MHz, 145.915 MHz
RS-15 24 Oct 20:44:11 20:53:23 32° 105° (ESE) 21:02:25 29.354 - 29.394 USB, Beacon 29.352 USB
HO-68 24 Oct 20:49:01 20:56:09 78° 73° (ENE) 21:03:20 435.675 MHz FM
STRAND 1 24 Oct 21:01:14 21:03:37 13° 296° (WNW) 21:06:00 ?
Oscar 11 24 Oct 21:03:09 21:06:45 26° 71° (ENE) 21:10:21 145.825 FM, Beacon 2401.500 USB
FUNcube-1 24 Oct 21:03:37 21:04:46 11° 66° (ENE) 21:05:54 145.950 - 145.970 MHz USB
SO-50 24 Oct 21:18:32 21:22:32 25° 54° (NE) 21:26:33 436.795 FM
KITSAT 1 24 Oct 21:21:49 21:29:47 59° 60° (ENE) 21:37:41 435.175 FM
ZACube-1 24 Oct 21:51:35 21:55:53 40° 74° (ENE) 22:00:09 437.345 MHz
UKube-1 24 Oct 21:56:50 22:01:06 58° 259° (W) 22:05:24 145.840 MHz, 145.915 MHz
FUNcube-1 24 Oct 22:36:03 22:40:35 60° 259° (W) 22:45:06 145.950 - 145.970 MHz USB
Oscar 11 24 Oct 22:39:36 22:42:51 21° 264° (W) 22:46:06 145.825 FM, Beacon 2401.500 USB
HO-68 24 Oct 22:40:37 22:44:24 15° 267° (W) 22:48:13 435.675 MHz FM
UOSAT-12 24 Oct 22:43:00 22:45:57 16° 50° (NE) 22:48:51 437.025 FM, 437.400 FM
RS-15 24 Oct 22:54:08 23:04:58 60° 303° (WNW) 23:15:45 29.354 - 29.394 USB, Beacon 29.352 USB
SO-50 24 Oct 22:58:46 23:03:05 33° 248° (WSW) 23:07:25 436.795 FM
KITSAT 1 24 Oct 23:18:19 23:24:34 25° 255° (WSW) 23:30:49 435.175 FM
MaSat-1 24 Oct 23:21:56 23:26:12 77° 111° (ESE) 23:30:07 437.345 MHz
ZACube-1 24 Oct 23:29:43 23:32:22 15° 266° (W) 23:35:00 437.345 MHz
